Location: Buckland
(65.9785°N, 161.1281°W)
Time: 05:05:39
(UTC+00:00)

Transit 4A - Pass Details

Date: 04 December 2020
Orbit: 864 x 980 km, 66.8° (Epoch: 26 January)

Event Time Altitude Azimuth Distance (km) Brightness Sun altitude
Rises 19:00:01 0° 221° (SW) 3,665 11.0 -7.2°
Reaches altitude 10° 19:02:35 10° 218° (SW) 2,728 10.4 -7.0°
Maximum altitude 19:08:51 59° 141° (SE) 1,126 8.8 -6.5°
Drops below altitude 10° 19:15:09 10° 64° (ENE) 2,736 10.6 -6.1°
Sets 19:17:44 0° 61° (ENE) 3,678 11.2 -5.9°
